Weather History for Chrysopouli, Greece

Change the Weather History Date:

Tuesday, November 20, 2012

  Actual Average Record
Temperature  
Mean Temperature 56 °F -  
Max Temperature 59 °F 55 °F 66 °F (2010)
Min Temperature 55 °F 42 °F 30 °F (2011)
Degree Days  
Heating Degree Days 9    
Growing Degree Days 6 (Base 50)    
Moisture  
Dew Point 53 °F    
Average Humidity 86    
Maximum Humidity 94    
Minimum Humidity 77    
Precipitation  
Precipitation 0.00 in - - ()
Sea Level Pressure  
Sea Level Pressure 30.06 in    
Wind  
Wind Speed 10 mph ()    
Max Wind Speed 15 mph    
Max Gust Speed -    
Visibility 5.6 miles    
Events Rain    
Averages and records for this station are not official NWS values.
T = Trace of Precipitation, MM = Missing Value Source: Averaged Metar Reports

Daily Weather History Graph

Daily Weather History Graph

Search for Another Location

Airport:

Trip Planner

Search our weather history database for the weather conditions in past years. The results will help you decide how hot, cold, wet, or windy it might be!

Date:

Astronomy

Nov. 20, 2012 Rise Set
Actual Time 7:14 AM EET 4:59 PM EET
Civil Twilight 6:45 AM EET 5:28 PM EET
Nautical Twilight 6:11 AM EET 6:02 PM EET
Astronomical Twilight 5:38 AM EET 6:35 PM EET
Moon 12:38 PM EET (11/20) No Moon Set
Length of Visible Light 10h 43m
Length of Day
9h 44m
Waxing Crescent, 48% of the Moon is Illuminated
Nov 20
Waxing Crescent
Nov 20
First Quarter
Nov 28
Full
Dec 6
Last Quarter
Dec 13
New

Hourly Weather History & Observations

Time (EET) Temp. Dew Point Humidity Pressure Visibility Wind Dir Wind Speed Gust Speed Precip Events Conditions
5:20 AM 57.2 °F 51.8 °F 82% 30.06 in 6.2 mi ENE 9.2 mph - N/A Rain Light Rain
5:50 AM 55.4 °F 53.6 °F 94% 30.06 in 6.2 mi ENE 10.4 mph - N/A Rain Light Rain
6:20 AM 55.4 °F 53.6 °F 94% 30.06 in 6.2 mi ENE 10.4 mph - N/A Rain Light Rain
6:50 AM 55.4 °F 51.8 °F 88% 30.06 in 6.2 mi ENE 11.5 mph - N/A Rain Light Rain
7:20 AM 55.4 °F 51.8 °F 88% 30.06 in 4.3 mi NE 13.8 mph - N/A Rain Light Rain
7:50 AM 55.4 °F 51.8 °F 88% 30.06 in 4.3 mi NE 11.5 mph - N/A Rain Light Rain
8:20 AM 55.4 °F 51.8 °F 88% 30.06 in 4.3 mi NE 11.5 mph - N/A Rain Light Rain
8:50 AM 55.4 °F 51.8 °F 88% 30.09 in 4.3 mi ENE 11.5 mph - N/A Rain Light Rain
9:20 AM 55.4 °F 51.8 °F 88% 30.09 in 4.3 mi ENE 9.2 mph - N/A Rain Light Rain
9:50 AM 55.4 °F 53.6 °F 94% 30.09 in 4.3 mi ENE 9.2 mph - N/A Rain Light Rain
10:20 AM 57.2 °F 55.4 °F 94% 30.09 in 5.0 mi ENE 10.4 mph - N/A Rain Light Rain
10:50 AM 57.2 °F 55.4 °F 94% 30.09 in 5.0 mi ENE 12.7 mph - N/A Rain Light Rain
11:20 AM 57.2 °F 55.4 °F 94% 30.09 in 5.0 mi ENE 12.7 mph - N/A Rain Light Rain
11:50 AM 57.2 °F 55.4 °F 94% 30.06 in 5.0 mi ENE 11.5 mph - N/A Rain Light Rain
12:20 PM 57.2 °F 55.4 °F 94% 30.06 in 5.0 mi ENE 11.5 mph - N/A Rain Light Rain
12:50 PM 57.2 °F 53.6 °F 88% 30.06 in 6.2 mi ENE 11.5 mph - N/A   Overcast
1:20 PM 57.2 °F 53.6 °F 88% 30.06 in 6.2 mi ENE 11.5 mph - N/A   Overcast
1:50 PM 57.2 °F 53.6 °F 88% 30.06 in 6.2 mi ENE 11.5 mph - N/A   Overcast
2:20 PM 57.2 °F 53.6 °F 88% 30.04 in 6.2 mi NE 15.0 mph - N/A   Overcast
2:50 PM 57.2 °F 51.8 °F 82% 30.04 in 6.2 mi NE 12.7 mph - N/A   Overcast
3:20 PM 57.2 °F 51.8 °F 82% 30.04 in 6.2 mi NE 12.7 mph - N/A   Overcast
3:50 PM 57.2 °F 51.8 °F 82% 30.04 in 6.2 mi NE 10.4 mph - N/A   Overcast
4:20 PM 57.2 °F 51.8 °F 82% 30.04 in 6.2 mi NE 10.4 mph - N/A   Overcast
4:50 PM 57.2 °F 51.8 °F 82% 30.04 in 6.2 mi ENE 11.5 mph - N/A   Overcast
5:20 PM 57.2 °F 50.0 °F 77% 30.04 in 6.2 mi NE 11.5 mph - N/A   Overcast
5:50 PM 57.2 °F 50.0 °F 77% 30.04 in 6.2 mi NE 11.5 mph - N/A   Overcast
6:20 PM 57.2 °F 50.0 °F 77% 30.04 in 6.2 mi NE 11.5 mph - N/A   Overcast
6:50 PM 57.2 °F 50.0 °F 77% 30.06 in 6.2 mi NE 13.8 mph - N/A   Overcast
7:20 PM 57.2 °F 50.0 °F 77% 30.06 in 6.2 mi NE 12.7 mph - N/A   Overcast
7:50 PM 59.0 °F 51.8 °F 77% 30.06 in 6.2 mi ENE 12.7 mph - N/A   Overcast